When you browse on this site, cookies collect data to enhance your experience and personalize the content and advertising you see.
Visit our Privacy Policy to learn more. By continuing to use the site, you agree to this use of cookies and data.
  • In Hungary
  • List of Countries
  • For 7 days
  • Water Temperature
  • Satellite Maps
  • Weather Map
  • News
  • Weather Widgets
  • user-avatar
    Login

    Hourly Weather Agartala

    Today, 24 January, Thursday

    Time Temperature Precipitation Wind Pressure Humidity
    00:00 +19°C° 0 mm 1 mps 760 mmHg 60%
    01:00 +19°C° 0 mm 1 mps 760 mmHg 61%
    02:00 +19°C° 0 mm 1 mps 760 mmHg 63%
    03:00 +18°C° 0 mm 1 mps 760 mmHg 64%
    04:00 +18°C° 0 mm 1 mps 760 mmHg 66%
    05:00 +18°C° 0 mm 1 mps 760 mmHg 67%
    06:00 +16°C° 0 mm 1 mps 760 mmHg 73%
    07:00 +19°C° 0 mm 1 mps 760 mmHg 66%
    08:00 +22°C° 0 mm 1 mps 761 mmHg 58%
    09:00 +24°C° 0 mm 1 mps 761 mmHg 50%
    10:00 +26°C° 0 mm 2 mps 761 mmHg 43%
    11:00 +28°C° 0 mm 2 mps 761 mmHg 37%
    12:00 +30°C° 0 mm 2 mps 760 mmHg 31%
    13:00 +31°C° 0 mm 3 mps 760 mmHg 30%
    14:00 +31°C° 0 mm 3 mps 759 mmHg 30%
    15:00 +31°C° 0 mm 3 mps 759 mmHg 29%
    16:00 +29°C° 0 mm 2 mps 759 mmHg 34%
    17:00 +27°C° 0 mm 2 mps 759 mmHg 39%
    18:00 +25°C° 0 mm 1 mps 759 mmHg 44%
    19:00 +24°C° 0 mm 1 mps 759 mmHg 46%
    20:00 +23°C° 0 mm 1 mps 759 mmHg 48%
    21:00 +22°C° 0 mm 1 mps 760 mmHg 50%
    22:00 +22°C° 0 mm 1 mps 760 mmHg 51%
    23:00 +21°C° 0 mm 1 mps 760 mmHg 52%

    Tomorrow, 25 January, Friday

    Time Temperature Precipitation Wind Pressure Humidity
    00:00 +21°C° 0 mm 1 mps 760 mmHg 53%
    01:00 +20°C° 0 mm 2 mps 760 mmHg 56%
    02:00 +19°C° 0 mm 2 mps 759 mmHg 58%
    03:00 +18°C° 0 mm 2 mps 759 mmHg 60%
    04:00 +18°C° 0 mm 2 mps 759 mmHg 60%
    05:00 +18°C° 0 mm 2 mps 759 mmHg 61%
    06:00 +17°C° 0 mm 2 mps 759 mmHg 61%
    07:00 +20°C° 0 mm 2 mps 760 mmHg 54%
    08:00 +23°C° 0 mm 2 mps 760 mmHg 47%
    09:00 +25°C° 0 mm 2 mps 761 mmHg 40%
    10:00 +27°C° 0 mm 3 mps 760 mmHg 35%
    11:00 +30°C° 0 mm 3 mps 760 mmHg 30%
    12:00 +33°C° 0 mm 3 mps 760 mmHg 25%
    13:00 +33°C° 0 mm 3 mps 759 mmHg 25%
    14:00 +33°C° 0 mm 3 mps 758 mmHg 25%
    15:00 +33°C° 0 mm 3 mps 758 mmHg 24%
    16:00 +30°C° 0 mm 3 mps 758 mmHg 30%
    17:00 +28°C° 0 mm 3 mps 758 mmHg 36%
    18:00 +26°C° 0 mm 2 mps 758 mmHg 42%
    19:00 +25°C° 0 mm 2 mps 759 mmHg 44%
    20:00 +24°C° 0 mm 2 mps 759 mmHg 47%
    21:00 +23°C° 0 mm 2 mps 760 mmHg 50%
    22:00 +21°C° 0 mm 2 mps 760 mmHg 52%
    23:00 +20°C° 0 mm 2 mps 760 mmHg 54%

    Day after tomorrow, 26 January, Saturday

    Time Temperature Precipitation Wind Pressure Humidity
    00:00 +20°C° 0 mm 2 mps 759 mmHg 56%
    01:00 +20°C° 0 mm 1 mps 759 mmHg 57%
    02:00 +20°C° 0 mm 1 mps 759 mmHg 58%
    03:00 +19°C° 0 mm 1 mps 759 mmHg 59%
    04:00 +19°C° 0 mm 1 mps 759 mmHg 60%
    05:00 +18°C° 0 mm 1 mps 759 mmHg 61%
    06:00 +17°C° 0 mm 2 mps 759 mmHg 62%
    07:00 +19°C° 0 mm 2 mps 759 mmHg 55%
    08:00 +21°C° 0 mm 2 mps 760 mmHg 49%
    09:00 +25°C° 0 mm 2 mps 761 mmHg 43%
    10:00 +28°C° 0 mm 2 mps 760 mmHg 37%
    11:00 +30°C° 0 mm 2 mps 760 mmHg 30%
    12:00 +33°C° 0 mm 1 mps 760 mmHg 24%
    13:00 +34°C° 0 mm 2 mps 759 mmHg 23%
    14:00 +34°C° 0 mm 2 mps 758 mmHg 22%
    15:00 +34°C° 0 mm 3 mps 758 mmHg 21%
    16:00 +31°C° 0 mm 3 mps 758 mmHg 25%
    17:00 +28°C° 0 mm 3 mps 758 mmHg 29%
    18:00 +26°C° 0 mm 3 mps 758 mmHg 33%
    19:00 +25°C° 0 mm 2 mps 759 mmHg 38%
    20:00 +24°C° 0 mm 2 mps 760 mmHg 42%
    21:00 +23°C° 0 mm 2 mps 760 mmHg 47%
    22:00 +21°C° 0 mm 2 mps 760 mmHg 50%
    23:00 +22°C° 0 mm 1 mps 760 mmHg 53%

    27 January, Sunday

    Time Temperature Precipitation Wind Pressure Humidity
    00:00 +21°C° 0 mm 1 mps 760 mmHg 55%
    01:00 +21°C° 0 mm 1 mps 760 mmHg 55%
    02:00 +20°C° 0 mm 1 mps 759 mmHg 55%
    03:00 +20°C° 0 mm 1 mps 759 mmHg 55%
    04:00 +19°C° 0 mm 1 mps 759 mmHg 54%
    05:00 +19°C° 0 mm 1 mps 759 mmHg 52%
    06:00 +18°C° 0 mm 1 mps 759 mmHg 51%
    07:00 +20°C° 0 mm 1 mps 760 mmHg 47%
    08:00 +21°C° 0 mm 2 mps 761 mmHg 43%
    09:00 +24°C° 0 mm 2 mps 762 mmHg 39%
    10:00 +26°C° 0 mm 2 mps 761 mmHg 35%
    11:00 +29°C° 0 mm 2 mps 761 mmHg 31%
    12:00 +31°C° 0 mm 2 mps 761 mmHg 26%
    13:00 +31°C° 0 mm 2 mps 760 mmHg 27%
    14:00 +31°C° 0 mm 3 mps 759 mmHg 27%
    15:00 +30°C° 0 mm 3 mps 758 mmHg 27%
    16:00 +29°C° 0 mm 3 mps 758 mmHg 32%
    17:00 +27°C° 0 mm 3 mps 759 mmHg 37%
    18:00 +25°C° 0 mm 2 mps 759 mmHg 42%
    19:00 +25°C° 0 mm 2 mps 759 mmHg 43%
    20:00 +24°C° 0 mm 2 mps 760 mmHg 44%
    21:00 +23°C° 0 mm 1 mps 760 mmHg 45%
    22:00 +23°C° 0 mm 1 mps 760 mmHg 45%
    23:00 +23°C° 0 mm 1 mps 760 mmHg 45%

    28 January, Monday

    Time Temperature Precipitation Wind Pressure Humidity
    00:00 +23°C° 0 mm 1 mps 760 mmHg 45%
    01:00 +23°C° 0 mm 1 mps 759 mmHg 46%
    02:00 +23°C° 0 mm 1 mps 759 mmHg 46%
    03:00 +22°C° 0 mm 1 mps 759 mmHg 47%
    04:00 +22°C° 0 mm 1 mps 759 mmHg 49%
    05:00 +21°C° 0 mm 1 mps 759 mmHg 52%
    06:00 +20°C° 0 mm 1 mps 760 mmHg 54%
    07:00 +22°C° 0 mm 1 mps 760 mmHg 51%
    08:00 +23°C° 0 mm 1 mps 761 mmHg 47%
    09:00 +25°C° 0 mm 1 mps 761 mmHg 43%
    10:00 +27°C° 0 mm 2 mps 761 mmHg 38%
    11:00 +29°C° 0 mm 2 mps 760 mmHg 34%
    12:00 +31°C° 0 mm 2 mps 760 mmHg 29%
    13:00 +31°C° 0 mm 2 mps 759 mmHg 28%
    14:00 +31°C° 0 mm 2 mps 759 mmHg 28%
    15:00 +31°C° 0 mm 2 mps 758 mmHg 28%
    16:00 +29°C° 0 mm 2 mps 758 mmHg 32%
    17:00 +27°C° 0 mm 2 mps 758 mmHg 36%
    18:00 +25°C° 0 mm 2 mps 758 mmHg 40%
    19:00 +24°C° 0 mm 2 mps 759 mmHg 41%
    20:00 +23°C° 0 mm 2 mps 759 mmHg 43%
    21:00 +22°C° 0 mm 1 mps 760 mmHg 45%
    22:00 +21°C° 0 mm 2 mps 760 mmHg 45%
    23:00 +20°C° 0 mm 2 mps 760 mmHg 45%

    29 January, Tuesday

    Time Temperature Precipitation Wind Pressure Humidity
    00:00 +19°C° 0 mm 2 mps 760 mmHg 45%
    01:00 +19°C° 0 mm 2 mps 759 mmHg 46%
    02:00 +19°C° 0 mm 3 mps 759 mmHg 48%
    03:00 +18°C° 0 mm 3 mps 759 mmHg 50%
    04:00 +18°C° 0 mm 3 mps 759 mmHg 52%
    05:00 +17°C° 0 mm 2 mps 759 mmHg 54%
    06:00 +17°C° 0 mm 2 mps 759 mmHg 56%
    07:00 +19°C° 0 mm 2 mps 760 mmHg 51%
    08:00 +21°C° 0 mm 2 mps 760 mmHg 45%
    09:00 +24°C° 0 mm 2 mps 761 mmHg 39%
    10:00 +26°C° 0 mm 3 mps 760 mmHg 35%
    11:00 +28°C° 0 mm 3 mps 760 mmHg 30%
    12:00 +30°C° 0 mm 4 mps 759 mmHg 25%
    13:00 +30°C° 0 mm 4 mps 759 mmHg 25%
    14:00 +30°C° 0 mm 4 mps 758 mmHg 26%
    15:00 +30°C° 0 mm 4 mps 757 mmHg 27%
    16:00 +28°C° 0 mm 3 mps 758 mmHg 31%
    17:00 +26°C° 0 mm 3 mps 758 mmHg 34%
    18:00 +24°C° 0 mm 2 mps 758 mmHg 38%
    19:00 +23°C° 0 mm 2 mps 758 mmHg 40%
    20:00 +21°C° 0 mm 2 mps 759 mmHg 41%
    21:00 +20°C° 0 mm 2 mps 760 mmHg 43%
    22:00 +19°C° 0 mm 2 mps 760 mmHg 43%
    23:00 +19°C° 0 mm 2 mps 760 mmHg 44%
    Show more